This is the latest recevied weather packets stored in our database for station/object KD4IZ-13. If no packets are shown the sender has not sent any weather packets the latest 10 day(s).
| Time | Temp. | Humidity | Pressure | Rain* | Wind** | Luminosity | Snow |
|---|---|---|---|---|---|---|---|
| 1777495528 | 13.89° C | 86% | 1010.3 hPa | 0 mm | - | 43 W/m² | - |
| 1777495224 | 13.89° C | 87% | 1010.3 hPa | 0 mm | - | 58 W/m² | - |
| 1777494921 | 13.89° C | 87% | 1010.5 hPa | 0 mm | - | 75 W/m² | - |
| 1777494619 | 13.89° C | 88% | 1010.6 hPa | 0 mm | - | 75 W/m² | - |
| 1777494316 | 13.89° C | 87% | 1010.5 hPa | 0 mm | - | 108 W/m² | - |
| 1777494012 | 13.89° C | 88% | 1010.3 hPa | 0 mm | - | 132 W/m² | - |
| 1777493710 | 13.89° C | 89% | 1010.5 hPa | 0 mm | - | 130 W/m² | - |
| 1777493408 | 13.33° C | 90% | 1010.8 hPa | 0 mm | - | 115 W/m² | - |
| 1777493103 | 13.33° C | 91% | 1010.9 hPa | 0 mm | - | 92 W/m² | - |
| 1777492800 | 13.33° C | 91% | 1011.2 hPa | 0 mm | - | 85 W/m² | - |
| 1777492496 | 13.33° C | 92% | 1011.3 hPa | 0 mm | - | 81 W/m² | - |
| 1777492193 | 13.33° C | 92% | 1011.4 hPa | 0 mm | - | 72 W/m² | - |
| 1777491890 | 13.33° C | 92% | 1011.5 hPa | 0 mm | - | 118 W/m² | - |
| 1777491586 | 13.33° C | 92% | 1011.6 hPa | 0 mm | - | 117 W/m² | - |
| 1777491284 | 13.33° C | 94% | 1011.7 hPa | 0 mm | - | 112 W/m² | - |
| 1777490980 | 12.78° C | 95% | 1011.7 hPa | 0 mm | - | 119 W/m² | - |
| 1777490676 | 12.78° C | 97% | 1011.6 hPa | 0 mm | - | 120 W/m² | - |
| 1777490372 | 12.78° C | 96% | 1011.6 hPa | 0 mm | - | 85 W/m² | - |
| 1777490070 | 12.78° C | 97% | 1011.8 hPa | 0 mm | - | 147 W/m² | - |
| 1777489767 | 12.78° C | 97% | 1012 hPa | 0 mm | - | 125 W/m² | - |
| 1777489465 | 12.78° C | 97% | 1012.5 hPa | 0 mm | - | 88 W/m² | - |
| 1777489161 | 12.78° C | 97% | 1012.6 hPa | 0 mm | - | 66 W/m² | - |
| 1777488858 | 12.78° C | 96% | 1012.5 hPa | 0 mm | - | 72 W/m² | - |
| 1777488555 | 12.78° C | 95% | 1012.4 hPa | 3.05 mm | - | 45 W/m² | - |
| 1777488253 | 13.33° C | 93% | 1012.6 hPa | 3.05 mm | - | 53 W/m² | - |
* Rain latest hour (hover to see other rain measurements)
** Current wind speed in m/s (hover to see current wind gust speed)